Погода в Сусе

Тунис     35°51′35″N   10°35′53″E
темп.,
°C
ветер,
м/с
пор.,
м/с
влажн.,
%
обл.,
%
осадки,
мм/ч
давл.,
гПа
погр.,
м
10 августа, ср
ср1001:00+28ссв23610 0.0 1016509
04:00+27ссз34610 0.0 1015370
07:00+27с34540 0.0 1016419
10:00+30ссв33380 0.0 10161203
13:00+33всв43300 0.0 10151928
16:00+34в65300 0.0 10131859
19:00+30всв78520 0.0 1014863
22:00+29в33550 0.0 1015900
11 августа, чт
чт1101:00+28с33540 0.0 1015561
04:00+27ссз23600 0.0 1014329
07:00+27ссз23580 0.0 1015485
10:00+30ссв44420 0.0 10151246
13:00+32всв44370 0.0 10141689
16:00+32всв75431 0.0 1012963
19:00+29всв78560 0.0 1012750
22:00+28в22580 0.0 1014862
12 августа, пт
пт1201:00+28ссв33600 0.0 1014621
04:00+27с33610 0.0 1013405
07:00+27с34600 0.0 1014540
10:00+30ссв44410 0.0 10141233
13:00+33св45330 0.0 10131707
16:00+33всв65350 0.0 10131195
19:00+29всв66520 0.0 1013663
22:00+28вюв22530 0.0 1015593
13 августа, сб
сб1301:00+28ююз22560 0.0 1014326
04:00+27ююз33610 0.0 1014247
07:00+27ююз45570 0.0 1014349
10:00+32юз44360 0.0 10141002
13:00+37з34210 0.0 10122044
16:00+39в45200 0.0 10112189
19:00+36в45240 0.0 1010406
22:00+32ююз35400 0.0 1012237
14 августа, вс
вс1401:00+31зюз11420 0.0 1012126
04:00+30ссв34490 0.0 1011171
07:00+30ссв23350 0.0 1011214
10:00+33ссв44260 0.0 1012806
13:00+36св44260 0.0 10121251
16:00+34всв76400 0.0 1010681
19:00+30всв68530 0.0 1011488
22:00+29в225414 0.0 1012410